Miscellaneous Local Product
Issued by NWS Hastings, NE

Home | Current Version | Previous Version | Text Only | Print | Product List | Glossary On
Versions: 1 2 3 4 5 6 7 8 9 10 11 12 13 14 15 16 17 18 19 20 21 22 23 24 25 26 27 28 29 30 31 32 33 34 35 36 37 38 39 40 41 42 43 44 45 46 47 48 49 50
000
AXUS43 KGID 140202
MISGRI

GID CWA HOURLY WEATHER ROUNDUP
NATIONAL WEATHER SERVICE HASTINGS NE
800 PM CST WED DEC 13 2017

NOTE: "FAIR" INDICATES FEW OR NO CLOUDS BELOW 12,000 FEET WITH NO
SIGNIFICANT WEATHER AND/OR OBSTRUCTIONS TO VISIBILITY.

...SOUTH CENTRAL NEBRASKA...

CITY           SKY/WX    TMP DP  RH WIND       PRES   REMARKS
GRAND ISLAND   CLOUDY    32  24  72 W7        29.96R WCI  26
KEARNEY        CLEAR     35  23  61 NW7       29.98R WCI  29
HASTINGS       CLEAR     31  22  69 NW7       29.96R WCI  24
ORD            PTCLDY    37  25  61 NW12      29.95R WCI  29
YORK           CLOUDY    36  27  69 CALM      29.96R
AURORA         CLEAR     33  23  68 NW10      29.95R WCI  24
LEXINGTON      CLOUDY    34  22  61 NW7       29.99R WCI  28
HOLDREGE       CLEAR     29  20  70 W5        29.98S WCI  24
HEBRON         CLEAR     36  26  65 W3        29.96R

...NEBRASKA PANHANDLE...

CITY           SKY/WX    TMP DP  RH WIND       PRES   REMARKS
CHADRON        CLOUDY    34  22  61 CALM      30.08R
ALLIANCE       CLOUDY    37  20  50 N13       30.05R WCI  29
SCOTTSBLUFF    MOCLDY    40  18  41 NW12      30.08R WCI  33
SIDNEY         PTCLDY    39  15  37 N16       30.05R WCI  30

...WESTERN AND NORTH CENTRAL NEBRASKA...

CITY           SKY/WX    TMP DP  RH WIND       PRES   REMARKS
VALENTINE      CLOUDY    40  21  46 NW15      30.01R WCI  32
AINSWORTH      PTCLDY    38  23  56 N10       29.98S WCI  31
ONEILL         CLOUDY    35  28  75 N15       29.98R WCI  25
BROKEN BOW     CLOUDY    40  23  50 NW14      29.97R WCI  32
IMPERIAL       CLOUDY    28  15  58 N8        30.03R WCI  20
NORTH PLATTE   PTCLDY    38  22  52 N9        30.01R WCI  31
MCCOOK         CLOUDY    32  18  56 NW12      30.02R WCI  23

...EASTERN NEBRASKA...

CITY           SKY/WX    TMP DP  RH WIND       PRES   REMARKS
NORFOLK        CLOUDY    37  26  64 N18G26    29.93R WCI  27
SO SIOUX CITY  CLOUDY    38  27  64 N21       29.92R WCI  28
TEKAMAH        CLOUDY    40  25  55 NW21G30   29.93R WCI  30
COLUMBUS       CLOUDY    37  26  64 N9        29.96R WCI  30
ALBION         PTCLDY    37  28  69 N8        29.96R WCI  31
OMAHA EPPLEY   CLOUDY    41  24  51 NW23G35   29.91S
OFFUTT AFB     CLOUDY    41  24  50 NW18G30   29.92R
MILLARD        CLOUDY    42  27  55 N12G22    29.93R
LINCOLN        PTCLDY    39  27  62 N8        29.96R WCI  33
NEBRASKA CITY  MOCLDY    39  29  66 N14       29.93R WCI  31
BEATRICE       CLEAR     35  28  74 N5        29.96R WCI  31
FALLS CITY     CLEAR     36  27  69 NW7       29.93R WCI  30

...NORTHERN KANSAS...

CITY           SKY/WX    TMP DP  RH WIND       PRES   REMARKS
GOODLAND       CLOUDY    39  15  37 W3        30.03R
HILL CITY      CLOUDY    31  16  54 NW8       30.01R WCI  23
NORTON         CLEAR     34  16  47 NW12      29.99R WCI  25
PHILLIPSBURG   CLEAR     34  19  55 NW7       29.99S WCI  28
SMITH CENTER   CLEAR     34  21  60 NW3       29.99R
HAYS           CLEAR     38  18  44 N10       30.00R WCI  31
RUSSELL        CLEAR     36  20  52 N12       29.97S WCI  28
CONCORDIA      CLEAR     42  25  50 NW9       29.95R
SALINA         CLOUDY    42  23  46 NW9       29.97R
TOPEKA         CLEAR     45  28  51 NW9       29.91R



USA.gov is the U.S. government's official web portal to all federal, state and local government web resources and services.